Location: Henham
(51.9333°N, 0.2500°E)
Time: 22:26:47
(UTC+00:00)

Cosmos 1125 Rocket - Pass Details

Date: 23 October 2019
Orbit: 758 x 780 km, 74.0° (Epoch: 14 November)

Event Time Altitude Azimuth Distance (km) Brightness Sun altitude
Rises 19:31:43 0° 336° (NNW) 3,266 7.3 -25.6°
Reaches altitude 10° 19:34:11 10° 342° (NNW) 2,331 6.4 -26.0°
Enters shadow 19:38:15 44° 19° (NNE) 1,057 4.1 -26.6°
